Temperature
12 12 12 12 12 12 12 12 12 12 12 12 12 12 12 12 11 12 12 12 12 12 12 12 12 12 12 12 12 12 12 12 12 12 12 12 12 12 12 12 11 11 11
11 11 11 11 11 12 12 12 12 12 12 12 12 11 11 11 11 11 11 11 12 12 11 12 11 11 11 11 11 11 11 11 11 11 11 11 11 11 11 11 11 11 11
11 11 11 11 11 11 11 11 11 11 11 11 11 11 11 11 11 11 11 11 11 11 11 11 11 11 11 11 11 11 11 11 11 11 11 11 11 11 11 11 11 11 11
11 11 11 11 11 11 11 11 11 11 11 11 11 11 11 11 10 10 10 10 10 11 11 11 11 11 11 11 10 11 11 11 11 11 11 10 10 10 10 10 11 11 11
10 10 10 10 10 11 11 11 10 10 10 10 10 10 10 10 10 10 10 10 10 10 10 10 10 10 10 10 10 10 10 10 10 10 10 10 10 10 10 10 10 10 10
10 10 10 10 10 10 10 10 10 10 10 10 10 10 10 9 9 9 9 9 10 10 10 10 10 10 10 10 10 10 10 10 10 10 10 10 10 10 10 10 10 10 10
10 10 10 10 10 10 10 10 9 9 9 9 9 9 9 9 9 9 9 9 9 9 9 9 9 9 9 9 9 9 9 9 9 9 9 9 9 9 9 9 9 9 9
10 9 9 9 9 9 9 9 9 9 9 9 8 8 8 8 8 9 9 9 9 9 9 9 9 9 9 9 9 9 9 9 9 9 9 9 9 9 9 9 9 9 9
9 9 9 9 9 9 9 9 9 9 8 8 8 8 8 8 7 8 8 8 8 8 8 8 8 8 8 8 8 8 8 8 8 8 8 8 8 8 8 8 8 8 8
9 9 9 9 9 9 9 8 8 8 8 8 8 8 8 8 7 7 7 8 8 8 8 8 8 8 8 8 8 8 8 8 8 8 8 8 8 8 7 8 8 8 8
8 8 8 8 8 8 8 8 8 8 8 7 7 8 8 8 8 7 7 7 7 7 7 7 7 7 8 8 7 7 7 7 7 7 7 7 7 7 7 7 7 7 7
8 8 8 8 8 8 8 8 8 8 7 7 7 7 7 7 7 7 7 7 7 7 7 7 7 7 7 7 7 7 7 7 7 7 7 7 7 7 7 7 7 7 7
8 8 8 8 8 8 8 7 7 7 7 7 7 7 7 7 7 7 7 6 6 6 6 6 6 7 7 7 7 7 7 7 7 7 7 6 6 7 7 7 7 7 7
8 8 8 7 7 7 7 7 7 7 7 7 7 6 6 6 6 6 7 6 6 6 6 6 6 6 6 6 6 6 6 6 6 6 6 6 6 6 6 6 6 6 6
8 8 7 7 7 7 7 7 7 7 6 6 6 6 6 6 6 6 6 6 6 5 5 6 6 6 6 6 6 6 6 6 6 6 6 6 6 6 6 6 6 6 6
7 7 7 7 7 7 7 6 6 6 6 6 6 6 6 6 6 6 6 5 5 5 5 5 6 6 6 5 5 5 5 5 5 5 5 5 5 5 5 5 5 5 5
7 7 7 7 6 6 6 6 6 6 6 6 6 6 6 6 5 5 5 5 5 5 5 5 5 5 5 5 5 5 5 5 5 5 5 5 5 5 5 5 5 5 5
7 7 6 6 6 6 6 6 6 6 5 5 5 5 5 5 5 5 5 5 5 5 4 4 5 5 5 5 5 4 4 4 4 4 4 4 4 4 4 4 4 4 4
6 6 6 6 6 6 6 5 5 5 5 5 5 5 5 5 5 5 5 4 4 4 4 4 4 4 4 4 4 4 4 4 4 4 4 4 4 4 4 4 4 4 4
6 6 6 6 6 5 5 5 5 5 5 5 5 5 5 5 5 5 4 4 4 4 4 4 4 4 4 4 4 3 3 3 3 3 3 3 3 3 3 3 3 3 3
5 5 5 5 5 5 5 5 5 4 4 4 4 4 4 4 4 4 4 4 4 4 3 3 3 3 3 3 3 3 3 3 3 3 3 3 3 3 3 3 3 3 3
5 5 5 5 5 5 5 5 4 4 4 4 4 4 4 4 4 4 4 3 3 3 3 3 3 3 3 3 3 2 2 2 2 2 2 2 2 2 2 2 2 2 2
4 4 4 4 5 5 4 4 4 4 4 4 4 3 3 3 3 3 3 3 3 3 2 2 2 2 2 2 2 2 2 1 1 1 1 1 1 1 1 1 1 2 2
4 4 4 4 4 4 4 4 3 3 3 3 3 3 3 3 3 3 2 2 2 2 2 2 2 2 2 2 2 1 1 1 1 1 0 0 0 0 0 1 1 1 1
3 3 3 3 3 3 3 3 3 3 2 2 2 2 2 2 2 2 2 2 2 2 2 2 2 1 1 1 1 1 1 0 -0 0 -0 -0 -0 -0 -0 0 0 0 0
2 2 2 2 3 3 3 2 2 2 2 2 2 2 2 2 2 2 2 1 1 1 1 1 1 1 1 1 1 0 -0 -0 -0 -1 -1 -1 -1 -1 -1 -1 -1 -1 -1
Wind_Speed
4 4 4 5 5 5 5 5 5 6 5 5 4 4 4 4 3 3 4 5 4 3 3 4 5 5 6 5 5 5 5 5 6 6 6 6 6 6 7 7 7 6 6
4 4 4 4 5 5 5 5 5 5 5 4 4 3 3 3 3 2 2 4 4 3 3 3 4 5 5 5 5 5 5 5 5 5 5 5 5 6 5 5 5 6 6
5 5 4 4 4 5 6 5 6 5 4 4 4 3 2 2 2 2 2 2 2 3 3 3 4 4 5 4 5 5 5 5 5 5 5 4 4 5 4 5 5 5 5
6 5 4 4 5 5 5 4 4 4 4 4 3 2 2 2 1 2 2 2 1 2 3 4 4 4 4 4 4 4 4 4 4 4 4 4 4 4 4 4 4 4 5
6 6 4 4 6 5 5 4 4 4 4 4 3 2 2 1 1 1 2 2 2 2 2 4 5 4 4 4 3 3 3 3 4 3 3 3 2 2 3 3 3 3 3
6 5 4 5 5 4 4 5 5 4 4 4 3 3 2 1 1 1 1 1 1 1 1 2 2 3 4 3 3 3 3 3 3 3 2 1 1 1 1 1 1 1 2
7 6 4 5 5 5 5 6 5 5 4 4 3 2 2 1 1 1 0 0 1 1 1 1 1 1 2 3 2 2 2 2 2 2 2 2 1 1 1 1 0 0 1
7 6 6 5 5 5 6 6 6 4 3 4 3 3 2 2 1 1 1 0 0 0 0 0 0 0 1 2 2 2 1 2 2 1 1 2 2 2 2 2 2 2 2
6 7 7 6 6 6 6 7 7 6 4 3 3 2 2 3 2 2 2 1 1 1 0 1 1 1 1 1 2 2 2 1 2 2 2 3 3 4 4 3 3 3 3
6 7 7 7 7 6 7 7 7 6 6 5 4 2 2 1 2 2 2 2 2 2 2 1 1 2 2 2 1 1 2 3 3 4 4 4 4 4 5 5 5 5 5
6 6 7 7 7 6 7 7 7 6 6 6 4 3 2 2 3 3 3 3 3 3 3 3 2 2 2 2 2 2 2 3 5 5 6 6 5 5 5 5 6 6 6
5 6 6 7 7 6 7 7 7 8 6 6 5 5 4 3 4 3 4 4 4 3 3 3 3 3 3 4 4 3 3 4 5 6 7 7 7 6 6 6 6 6 7
5 6 6 6 6 6 6 7 7 7 7 7 7 5 5 4 3 3 3 3 4 3 3 4 4 4 4 4 4 4 5 5 6 6 7 7 7 6 6 7 7 7 7
6 6 7 7 7 7 6 7 6 7 7 7 7 6 5 4 4 3 3 3 4 4 5 5 4 5 5 5 5 5 6 6 6 7 7 7 7 6 7 7 8 8 8
5 7 7 7 7 7 7 7 6 7 7 7 7 7 6 5 4 4 4 4 5 5 6 5 4 5 5 6 5 6 6 6 7 8 8 8 8 7 7 8 8 8 9
6 7 7 7 7 7 7 7 6 6 7 6 5 7 7 5 5 4 4 5 5 5 5 3 4 4 5 5 6 6 7 7 8 8 9 9 9 8 8 8 9 9 9
7 7 8 8 7 7 7 7 7 7 7 7 7 7 8 7 5 5 5 5 5 5 5 4 3 4 5 6 5 6 6 7 7 8 8 9 9 9 9 9 10 10 9
7 7 7 7 7 7 8 8 8 7 8 8 8 8 8 6 7 6 5 6 5 5 5 5 4 4 5 6 5 5 5 6 7 8 9 9 10 10 10 10 10 10 10
6 7 7 7 7 7 8 8 8 8 8 8 8 8 8 7 7 6 6 6 5 5 4 5 4 3 4 4 5 5 5 5 6 7 8 10 10 10 11 11 11 11 10
6 7 7 7 7 7 8 8 7 8 8 7 7 7 8 8 8 7 6 6 5 5 5 4 4 4 4 4 4 5 5 5 5 5 7 8 9 10 11 12 11 11 11
6 7 7 7 7 7 7 8 8 8 8 7 6 7 7 7 8 7 6 7 6 5 5 5 4 4 4 4 5 4 5 5 5 5 5 5 6 7 8 10 11 11 11
6 6 7 7 7 6 7 8 8 8 7 7 7 7 6 7 8 8 9 9 8 8 7 6 6 7 7 6 5 5 4 5 5 4 5 6 6 7 7 8 9 10 11
6 6 6 7 7 7 8 9 8 7 7 7 7 6 5 6 7 7 8 9 10 10 10 9 9 9 8 7 7 7 7 7 6 4 4 6 6 7 7 8 10 11 11
6 6 6 7 7 7 8 9 8 7 7 7 7 7 7 7 6 7 7 8 8 9 10 9 9 9 7 7 8 7 7 6 5 5 5 6 6 7 6 8 10 11 12
5 6 6 7 7 7 7 8 8 6 6 6 6 7 7 7 7 8 7 7 7 7 7 8 9 8 8 8 7 5 5 5 6 5 4 5 5 6 6 7 7 9 10
5 5 5 6 7 6 7 8 8 6 6 5 5 6 7 8 8 9 8 7 7 7 5 5 5 6 6 7 9 8 6 6 5 5 4 4 4 4 5 5 5 6 8
Wind_Direction
166 161 159 159 160 157 154 152 150 143 141 139 139 143 140 137 131 120 107 98 86 90 109 122 137 135 136 131 129 125 120 109 109 107 107 105 96 89 80 72 64 58 53
165 164 161 158 157 156 154 150 146 143 142 138 131 134 138 136 133 129 118 109 96 77 81 99 127 134 131 131 128 128 120 111 109 110 109 108 105 95 84 72 62 55 52
169 164 161 158 157 157 152 144 141 137 135 133 132 125 114 111 123 122 112 104 109 94 73 71 97 123 125 124 128 125 118 108 103 104 104 103 102 96 88 80 67 56 52
176 170 163 159 154 153 151 152 153 148 142 140 137 130 116 95 105 97 99 91 83 81 81 62 63 107 112 121 125 128 128 123 112 102 101 101 105 103 96 84 69 56 50
181 177 169 160 158 153 152 155 160 158 155 147 140 130 122 113 100 90 100 88 69 59 66 72 71 87 102 111 118 121 130 133 128 119 109 102 107 118 116 100 77 57 43
182 178 170 166 163 157 157 158 155 154 152 145 131 112 106 116 103 101 102 88 71 65 50 59 86 89 99 113 123 128 126 129 138 144 149 143 132 135 141 129 96 53 29
184 180 175 173 172 169 166 158 151 155 148 147 138 122 109 118 133 118 92 113 86 64 51 37 28 96 127 114 123 129 133 133 140 162 177 186 197 214 213 194 167 18 1
188 186 184 182 180 174 169 163 153 162 159 172 173 172 184 191 187 225 211 234 221 89 48 290 233 187 160 154 119 133 153 169 170 186 204 212 225 233 240 246 250 257 280
196 192 189 184 184 183 180 179 172 178 177 185 196 196 198 207 201 195 219 223 231 247 250 264 241 238 214 190 173 153 167 203 212 227 242 246 245 245 245 253 258 260 265
201 196 193 192 188 190 186 187 184 186 186 191 197 231 261 223 201 195 202 219 236 244 236 233 242 247 235 225 211 197 192 215 236 247 254 255 258 258 259 259 262 266 269
202 198 195 196 195 197 192 188 186 189 194 200 201 200 208 226 234 230 232 223 229 242 244 236 233 237 240 241 232 233 224 229 243 252 255 257 264 270 268 275 275 274 275
200 200 197 197 196 198 195 192 193 196 201 206 208 208 213 217 219 230 240 232 237 241 244 246 240 238 232 233 238 242 234 240 247 254 255 259 265 275 276 274 280 287 285
199 201 201 203 200 199 197 196 198 200 203 207 211 215 223 231 228 233 233 240 251 254 245 243 242 237 235 234 234 231 233 240 248 252 257 263 268 275 288 281 276 280 286
200 200 202 204 203 200 198 199 201 203 204 208 213 216 221 227 224 227 229 233 246 251 242 239 237 235 237 239 240 228 236 239 251 255 258 269 273 275 281 282 277 277 282
198 197 199 201 202 199 198 198 203 203 205 210 214 215 221 224 226 227 228 227 235 247 247 239 233 228 235 238 234 235 243 242 248 254 256 264 267 267 269 277 278 277 278
199 195 197 200 200 200 199 198 205 207 206 212 214 216 221 224 222 223 225 233 240 244 249 245 240 241 228 238 237 242 248 250 245 245 248 253 258 258 261 269 274 276 276
200 198 197 199 201 203 202 201 204 205 210 214 216 219 222 223 222 222 223 228 233 236 244 259 254 239 233 236 236 241 245 247 243 238 244 252 256 255 257 264 269 270 272
199 199 197 199 203 205 205 204 204 206 211 213 215 217 222 221 222 222 221 226 231 234 238 246 252 243 241 239 240 241 243 248 250 243 244 251 254 254 256 262 269 270 271
197 195 195 200 203 206 208 208 208 212 215 217 217 219 222 220 222 222 223 226 229 231 236 236 244 251 250 239 242 248 249 249 252 249 248 249 250 254 257 259 263 267 269
197 198 200 202 203 205 208 208 209 213 217 218 219 222 223 223 224 223 224 225 222 223 226 226 237 246 249 249 243 245 251 251 254 252 254 255 254 255 257 258 258 262 267
203 202 202 203 204 207 209 209 210 213 215 216 218 222 225 225 226 225 225 222 219 222 224 227 235 243 241 237 240 243 252 260 260 251 258 257 256 256 257 255 253 257 262
205 205 205 205 208 212 206 207 211 212 213 214 218 221 223 223 224 224 226 225 224 223 223 227 235 236 238 240 239 241 247 259 264 242 256 264 259 259 257 257 258 258 261
205 208 208 207 214 215 204 205 211 215 216 217 218 219 222 226 226 230 228 226 231 235 232 234 236 239 239 233 230 235 239 247 260 260 261 263 259 262 262 263 263 262 263
207 211 211 210 214 216 205 206 210 218 221 222 222 222 222 224 225 226 228 232 237 239 237 240 244 245 244 235 231 238 246 256 274 261 246 260 265 268 273 269 264 261 263
211 214 214 213 215 215 204 204 208 219 221 225 228 228 226 225 223 221 225 231 239 246 243 241 248 250 245 237 229 230 233 244 262 257 241 253 269 279 278 271 263 258 262
211 212 217 217 218 218 207 205 210 217 219 223 228 229 229 231 225 218 226 229 234 240 238 243 246 242 238 229 225 231 233 241 258 259 232 237 262 277 278 269 267 270 270
Height
1532 1533 1535 1537 1538 1540 1541 1542 1544 1545 1547 1548 1549 1551 1552 1553 1554 1554 1555 1556 1556 1557 1557 1557 1558 1558 1558 1558 1558 1558 1558 1559 1559 1558 1558 1558 1558 1557 1557 1557 1556 1555 1555
1530 1531 1533 1534 1536 1538 1539 1541 1542 1543 1545 1546 1548 1549 1551 1552 1553 1553 1554 1555 1555 1556 1556 1557 1557 1557 1558 1558 1558 1558 1558 1558 1558 1558 1558 1558 1557 1557 1557 1556 1556 1555 1554
1528 1529 1531 1532 1534 1536 1537 1539 1541 1542 1543 1545 1546 1548 1549 1550 1551 1552 1553 1553 1554 1554 1555 1556 1556 1556 1557 1557 1557 1557 1557 1557 1557 1557 1557 1557 1557 1556 1556 1556 1555 1555 1554
1526 1527 1529 1530 1532 1533 1535 1537 1539 1540 1541 1543 1544 1546 1547 1548 1550 1550 1551 1552 1552 1553 1554 1554 1555 1555 1555 1556 1556 1556 1556 1556 1556 1556 1556 1556 1556 1556 1555 1555 1555 1554 1553
1524 1525 1527 1528 1530 1531 1533 1535 1537 1538 1540 1541 1542 1544 1545 1546 1547 1548 1549 1550 1551 1551 1552 1553 1553 1554 1554 1555 1555 1555 1555 1555 1555 1555 1555 1555 1555 1555 1554 1554 1554 1553 1552
1521 1523 1524 1526 1527 1529 1530 1532 1534 1536 1538 1539 1541 1542 1543 1545 1546 1546 1547 1548 1549 1549 1550 1551 1551 1552 1552 1553 1553 1553 1553 1553 1553 1553 1553 1553 1553 1553 1553 1553 1552 1552 1551
1519 1520 1522 1523 1525 1526 1528 1530 1532 1533 1535 1537 1539 1540 1542 1543 1543 1544 1545 1545 1546 1547 1548 1548 1549 1550 1550 1550 1551 1551 1551 1551 1551 1551 1551 1551 1551 1552 1551 1551 1550 1550 1549
1516 1518 1519 1521 1522 1524 1525 1527 1529 1531 1532 1534 1536 1538 1540 1542 1541 1542 1542 1543 1544 1544 1545 1546 1547 1547 1547 1548 1548 1549 1549 1549 1549 1549 1549 1549 1549 1549 1549 1549 1548 1548 1547
1513 1515 1516 1518 1520 1521 1522 1524 1526 1528 1530 1532 1534 1537 1538 1539 1539 1540 1540 1540 1541 1542 1542 1543 1544 1544 1545 1545 1546 1546 1546 1547 1547 1547 1547 1547 1547 1547 1546 1546 1546 1545 1545
1510 1512 1514 1515 1517 1518 1520 1522 1524 1526 1528 1529 1531 1533 1535 1536 1537 1537 1538 1538 1539 1539 1539 1540 1541 1541 1542 1542 1542 1543 1543 1544 1544 1544 1544 1544 1544 1544 1543 1543 1542 1542 1542
1507 1509 1511 1512 1514 1515 1517 1519 1520 1523 1524 1527 1528 1530 1531 1533 1534 1535 1535 1535 1536 1536 1537 1537 1537 1538 1538 1539 1539 1539 1540 1540 1540 1541 1541 1540 1540 1540 1540 1539 1539 1538 1538
1504 1505 1507 1509 1510 1512 1514 1516 1517 1519 1521 1523 1525 1527 1528 1530 1530 1531 1532 1532 1533 1533 1534 1534 1534 1534 1535 1535 1536 1536 1536 1537 1537 1537 1537 1537 1537 1536 1536 1535 1535 1534 1534
1500 1502 1503 1505 1507 1508 1510 1512 1514 1516 1517 1520 1522 1523 1525 1526 1528 1528 1529 1529 1530 1530 1530 1531 1531 1531 1531 1531 1532 1532 1533 1533 1533 1533 1533 1533 1533 1532 1532 1531 1530 1530 1530
1496 1498 1500 1501 1503 1505 1507 1509 1510 1512 1514 1516 1518 1519 1521 1522 1524 1525 1526 1526 1526 1527 1527 1527 1527 1527 1528 1528 1528 1528 1528 1529 1529 1529 1529 1529 1528 1528 1528 1527 1526 1526 1525
1492 1494 1496 1498 1500 1501 1503 1505 1506 1508 1510 1512 1513 1515 1517 1518 1519 1520 1522 1523 1524 1523 1523 1523 1524 1524 1524 1524 1524 1524 1524 1524 1524 1524 1524 1524 1524 1523 1523 1523 1522 1521 1520
1488 1490 1492 1494 1495 1497 1499 1501 1503 1505 1506 1508 1509 1511 1512 1514 1515 1516 1517 1518 1519 1520 1519 1519 1519 1519 1520 1520 1520 1520 1520 1520 1520 1520 1519 1519 1519 1518 1518 1518 1517 1516 1516
1484 1486 1487 1489 1491 1493 1495 1497 1499 1500 1502 1504 1505 1507 1508 1509 1510 1511 1512 1513 1514 1515 1515 1514 1515 1515 1515 1515 1515 1516 1515 1515 1515 1515 1514 1514 1514 1513 1513 1513 1512 1512 1510
1480 1482 1483 1485 1487 1489 1491 1492 1494 1496 1498 1499 1501 1502 1503 1504 1505 1507 1508 1508 1509 1510 1511 1510 1510 1511 1511 1511 1511 1511 1511 1510 1510 1509 1509 1509 1508 1508 1507 1507 1507 1506 1505
1476 1478 1479 1481 1483 1485 1486 1488 1490 1492 1493 1495 1496 1498 1499 1500 1501 1502 1503 1504 1505 1506 1506 1506 1506 1507 1507 1507 1506 1506 1506 1505 1505 1504 1504 1503 1503 1503 1502 1502 1501 1500 1500
1472 1473 1475 1477 1479 1481 1482 1484 1486 1487 1489 1490 1491 1493 1494 1495 1496 1497 1498 1499 1500 1501 1501 1502 1502 1502 1502 1502 1502 1501 1500 1500 1500 1499 1499 1498 1498 1497 1497 1496 1495 1495 1494
1467 1469 1471 1472 1474 1476 1478 1479 1481 1483 1484 1485 1486 1488 1489 1490 1491 1493 1493 1494 1495 1496 1496 1497 1497 1497 1497 1497 1497 1496 1496 1495 1494 1494 1493 1493 1492 1491 1491 1490 1489 1488 1488
1463 1464 1466 1468 1469 1471 1473 1474 1476 1478 1479 1480 1481 1483 1484 1485 1486 1487 1488 1489 1490 1491 1491 1492 1492 1492 1492 1492 1492 1491 1491 1490 1489 1489 1488 1487 1487 1485 1485 1484 1483 1482 1481
1458 1459 1461 1463 1465 1467 1468 1470 1472 1473 1474 1475 1476 1478 1479 1480 1481 1482 1482 1483 1484 1485 1486 1487 1486 1486 1487 1487 1487 1486 1485 1485 1484 1483 1483 1481 1481 1480 1479 1478 1477 1476 1475
1453 1455 1456 1458 1460 1462 1464 1465 1467 1468 1469 1470 1471 1472 1473 1474 1475 1477 1477 1478 1478 1479 1480 1481 1481 1481 1481 1481 1481 1481 1480 1479 1478 1478 1478 1476 1475 1474 1473 1472 1471 1470 1469
1448 1450 1451 1453 1454 1456 1458 1460 1462 1463 1464 1465 1466 1467 1468 1469 1470 1471 1472 1472 1473 1473 1475 1475 1475 1475 1475 1475 1476 1475 1474 1474 1472 1472 1472 1471 1469 1468 1467 1465 1465 1464 1463
1444 1445 1447 1448 1450 1451 1453 1455 1457 1458 1459 1460 1461 1463 1464 1465 1465 1466 1467 1467 1467 1468 1469 1469 1469 1469 1469 1469 1469 1469 1469 1468 1466 1465 1465 1465 1464 1463 1460 1459 1458 1458 1457